Location: Byhalia Creek
(34.8270°N, 89.8040°W)
Time: 16:40:28
(UTC+00:00)

SL-4 R/B - Pass Details

Date: 22 April 2026
Orbit: 380 x 506 km, 51.6° (Epoch: 9 May)

Event Time Altitude Azimuth Distance (km) Brightness Sun altitude
Exits shadow 09:19:37 12° 327° (NNW) 1,595 4.4 -22.9°
Maximum altitude 09:22:59 40° 37° (NE) 733 3.1 -22.3°
Drops below altitude 10° 09:26:31 10° 108° (ESE) 1,641 4.9 -21.7°
Sets 09:28:43 0° 116° (ESE) 2,493 5.8 -21.4°
